Weather History for Asheville, NC

Change the Weather History Date:

Tuesday, January 22, 2013

  Actual Average Record
Temperature  
Mean Temperature 26 °F 37 °F  
Max Temperature 32 °F 48 °F 73 °F (1932)
Min Temperature 20 °F 27 °F 0 °F (1970)
Degree Days  
Heating Degree Days 39 28  
Month to date heating degree days 464 616  
Since 1 July heating degree days 2021 2277  
Cooling Degree Days 0 0  
Month to date cooling degree days 0 0  
Year to date cooling degree days 0 0  
Moisture  
Dew Point 2 °F    
Average Humidity 38    
Maximum Humidity 54    
Minimum Humidity 21    
Precipitation  
Precipitation 0.00 in 0.12 in 2.79 in (1906)
Month to date precipitation 5.71 2.58  
Year to date precipitation 5.71 2.58  
Snow  
Snow 0.00 in 0.10 in 8.80 in (1987)
Month to date snowfall 0.0 3.0  
Since 1 July snowfall T 4.0  
Snow Depth 0.00 in    
Sea Level Pressure  
Sea Level Pressure 30.17 in    
Wind  
Wind Speed 12 mph (NNW)    
Max Wind Speed 20 mph    
Max Gust Speed 29 mph    
Visibility 10 miles    
Events      
T = Trace of Precipitation, MM = Missing Value Source: NWS Daily Summary

Daily Weather History Graph

Daily Weather History Graph

Search for Another Location

Airport:

Trip Planner

Search our weather history database for the weather conditions in past years. The results will help you decide how hot, cold, wet, or windy it might be!

Date:

Astronomy

Jan. 22, 2013 Rise Set
Actual Time 7:35 AM EST 5:48 PM EST
Civil Twilight 7:08 AM EST 6:15 PM EST
Nautical Twilight 6:37 AM EST 6:46 PM EST
Astronomical Twilight 6:07 AM EST 7:16 PM EST
Moon 2:11 PM EST (1/22) 3:55 AM EST (1/22)
Length of Visible Light 11h 06m
Length of Day
10h 12m
Waxing Gibbous, 82% of the Moon is Illuminated
Jan 22
Waxing Gibbous
Jan 26
Full
Feb 3
Last Quarter
Feb 10
New
Feb 17
First Quarter

Hourly Weather History & Observations

Time (EST) Temp. Windchill Dew Point Humidity Pressure Visibility Wind Dir Wind Speed Gust Speed Precip Events Conditions
12:54 AM 30.0 °F 21.1 °F 10.9 °F 45% 30.02 in 10.0 mi North 10.4 mph 16.1 mph N/A   Clear
1:54 AM 28.0 °F 17.5 °F 10.0 °F 47% 30.02 in 10.0 mi NNW 12.7 mph 20.7 mph N/A   Clear
2:54 AM 26.1 °F 16.8 °F 10.0 °F 51% 30.04 in 10.0 mi North 9.2 mph - N/A   Clear
3:54 AM 24.1 °F 12.5 °F 9.0 °F 53% 30.05 in 10.0 mi NNW 12.7 mph 19.6 mph N/A   Clear
4:54 AM 23.0 °F 12.4 °F 9.0 °F 55% 30.06 in 10.0 mi NNW 10.4 mph 21.9 mph N/A   Clear
5:54 AM 21.9 °F 13.4 °F 7.0 °F 53% 30.10 in 10.0 mi North 6.9 mph 17.3 mph N/A   Clear
6:54 AM 21.0 °F 8.6 °F 6.1 °F 53% 30.12 in 10.0 mi North 12.7 mph 21.9 mph N/A   Clear
7:54 AM 19.9 °F 6.7 °F 5.0 °F 52% 30.16 in 10.0 mi North 13.8 mph 21.9 mph N/A   Clear
8:54 AM 21.9 °F 9.2 °F 3.9 °F 46% 30.18 in 10.0 mi North 13.8 mph 25.3 mph N/A   Clear
9:54 AM 23.0 °F 10.1 °F 3.0 °F 42% 30.21 in 10.0 mi North 15.0 mph 27.6 mph N/A   Clear
10:54 AM 26.1 °F 15.6 °F 3.0 °F 37% 30.22 in 10.0 mi North 11.5 mph 19.6 mph N/A   Clear
11:54 AM 28.0 °F 17.5 °F 1.0 °F 31% 30.23 in 10.0 mi North 12.7 mph 21.9 mph N/A   Clear
12:54 PM 28.9 °F 18.6 °F -0.0 °F 29% 30.20 in 10.0 mi North 12.7 mph 23.0 mph N/A   Clear
1:54 PM 30.0 °F 20.0 °F -2.0 °F 25% 30.19 in 10.0 mi North 12.7 mph 20.7 mph N/A   Clear
2:54 PM 30.9 °F 19.1 °F -4.0 °F 22% 30.18 in 10.0 mi NNW 18.4 mph 24.2 mph N/A   Clear
3:54 PM 32.0 °F 23.6 °F -2.9 °F 22% 30.19 in 10.0 mi North 10.4 mph 21.9 mph N/A   Clear
4:54 PM 30.0 °F 22.4 °F -6.0 °F 21% 30.20 in 10.0 mi North 8.1 mph - N/A   Clear
5:54 PM 28.0 °F 17.5 °F -6.0 °F 23% 30.22 in 10.0 mi NNW 12.7 mph - N/A   Clear
6:54 PM 26.1 °F 14.0 °F -2.0 °F 30% 30.22 in 10.0 mi NNW 15.0 mph - N/A   Clear
7:54 PM 25.0 °F 13.1 °F -0.9 °F 33% 30.24 in 10.0 mi NNW 13.8 mph - N/A   Clear
8:54 PM 24.1 °F 12.5 °F -0.9 °F 34% 30.25 in 10.0 mi NNW 12.7 mph - N/A   Clear
9:54 PM 24.1 °F 14.4 °F -0.0 °F 35% 30.25 in 10.0 mi North 9.2 mph - N/A   Clear
10:54 PM 21.9 °F 12.5 °F -0.0 °F 38% 30.25 in 10.0 mi NNW 8.1 mph - N/A   Clear
11:54 PM 21.9 °F 13.4 °F -0.0 °F 38% 30.25 in 10.0 mi NNW 6.9 mph - N/A   Clear